Location: New York
(40.7140°N, 74.0060°W)
Time: 03:45:55
(UTC-05:00)

ISS - Visible Passes

Search period start: 18 February 2018 00:00
Search period end: 28 February 2018 00:00
Orbit: 403 x 407 km, 51.6° (Epoch: 19 February)

Date Brightness Start Highest point End Pass type
(mag) Time Alt. Az. Time Alt. Az. Time Alt. Az.
23 Feb -0.2 06:01:14 10° SE 06:01:42 10° SE 06:02:12 10° ESE visible
25 Feb -1.5 05:50:36 10° S 05:53:21 25° SE 05:56:05 10° ENE visible
26 Feb -0.8 04:59:38 10° SSE 05:01:15 13° SE 05:02:53 10° E visible
27 Feb -3.4 05:41:50 10° SW 05:45:04 63° SE 05:48:19 10° ENE visible
